Perth, Australia

10:14 PM AWST on December 05, 2016 (GMT +0800)
Perth International

Weather History for YPPH - July, 2013

Change the Weather History Date:

Tuesday, July 9, 2013

  Actual Average Record
Temperature  
Mean Temperature 52 °F -  
Max Temperature 67 °F 62 °F 67 °F (2013)
Min Temperature 38 °F 44 °F 32 °F (2015)
Degree Days  
Heating Degree Days 12    
Growing Degree Days 2 (Base 50)    
Moisture  
Dew Point 45 °F    
Average Humidity 74    
Maximum Humidity 100    
Minimum Humidity 33    
Precipitation  
Precipitation 0.87 in - - ()
Sea Level Pressure  
Sea Level Pressure 30.06 in    
Wind  
Wind Speed 7 mph ()    
Max Wind Speed 17 mph    
Max Gust Speed 24 mph    
Visibility 6.5 miles    
Events Rain    
Averages and records for this station are not official NWS values.
T = Trace of Precipitation, MM = Missing Value Source: Averaged Metar Reports

Daily Weather History Graph

Daily Weather History Graph

Search for Another Location

Airport or City:

Trip Planner

Search our weather history database for the weather conditions in past years. The results will help you decide how hot, cold, wet, or windy it might be!

Date:

Astronomy

Jul. 09, 2013 Rise Set
Actual Time 7:16 AM AWST 5:26 PM AWST
Civil Twilight 6:49 AM AWST 5:53 PM AWST
Nautical Twilight 6:19 AM AWST 6:23 PM AWST
Astronomical Twilight 5:49 AM AWST 6:53 PM AWST
Moon 7:32 AM AWST (7/9) 6:29 PM AWST (7/9)
Length of Visible Light 11h 03m
Length of Day
10h 10m
New Moon, 1% of the Moon is Illuminated
Jul 9
New Moon
Jul 16
First Quarter
Jul 23
Full
Jul 30
Last Quarter
Aug 7
New

Hourly Weather History & Observations

Time (AWST) Temp. Windchill Dew Point Humidity Pressure Visibility Wind Dir Wind Speed Gust Speed Precip Events Conditions
12:00 AM 49 °F - 33 °F 41% 30.19 in 16 mi NNE 5.8 mph - -   Partly Cloudy
12:00 AM 48.2 °F - 32.0 °F 54% 30.18 in - NNE 5.8 mph - N/A   Clear
12:30 AM 48.2 °F - 33.8 °F 58% 30.15 in - NNE 5.8 mph - N/A   Clear
1:00 AM 48.2 °F - 32.0 °F 54% 30.15 in - NE 6.9 mph - N/A   Clear
1:30 AM 46.4 °F - 35.6 °F 66% 30.15 in - NNE 1.2 mph - N/A   Clear
2:00 AM 47 °F - 34 °F 49% 30.16 in - NNE 5.8 mph - -  
2:00 AM 46.4 °F 43.5 °F 33.8 °F 62% 30.15 in - NNE 5.8 mph - N/A   Clear
2:30 AM 48.2 °F - 32.0 °F 54% 30.15 in - NE 5.8 mph - N/A   Clear
3:00 AM 44 °F - 35 °F 61% 30.15 in 19 mi North 3.5 mph - -   Partly Cloudy
3:00 AM 44.6 °F 43.1 °F 35.6 °F 71% 30.12 in - North 3.5 mph - N/A   Clear
3:30 AM 42.8 °F - 35.6 °F 76% 30.12 in - Calm Calm - N/A   Clear
4:00 AM 42.8 °F 39.3 °F 35.6 °F 76% 30.12 in - NNE 5.8 mph - N/A   Clear
4:30 AM 42.8 °F 39.3 °F 33.8 °F 70% 30.12 in - NNE 5.8 mph - N/A   Clear
5:00 AM 42 °F - 35 °F 69% 30.12 in - North 4.6 mph - -  
5:00 AM 42.8 °F 40.1 °F 35.6 °F 76% 30.12 in - North 4.6 mph - N/A   Clear
5:30 AM 41.0 °F - 37.4 °F 87% 30.09 in - North 2.3 mph - N/A   Clear
6:00 AM 42 °F - 36 °F 71% 30.12 in 19 mi NW 3.5 mph - -   Partly Cloudy
6:00 AM 41.0 °F 39.0 °F 35.6 °F 81% 30.09 in - NW 3.5 mph - N/A   Clear
6:30 AM 39.2 °F 35.0 °F 35.6 °F 87% 30.09 in - NNE 5.8 mph - N/A   Clear
7:00 AM 42.8 °F 38.0 °F 35.6 °F 76% 30.09 in 6.2 mi ENE 8.1 mph - N/A   Mostly Cloudy
7:30 AM 42.8 °F 40.1 °F 35.6 °F 76% 30.09 in 6.2 mi NE 4.6 mph - N/A   Mostly Cloudy
8:00 AM 43 °F - 35 °F 65% 30.10 in - North 5.8 mph - -  
8:00 AM 42.8 °F 39.3 °F 35.6 °F 76% 30.09 in 6.2 mi North 5.8 mph - N/A   Mostly Cloudy
8:30 AM 42.8 °F 40.1 °F 35.6 °F 76% 30.09 in 6.2 mi North 4.6 mph - N/A   Scattered Clouds
9:00 AM 48 °F - 37 °F 56% 30.11 in 16 mi North 4.6 mph - -   Scattered Clouds
9:00 AM 48.2 °F - 37.4 °F 66% 30.09 in 6.2 mi North 4.6 mph - N/A   Mostly Cloudy
9:30 AM 51.8 °F - 35.6 °F 54% 30.09 in 6.2 mi NNE 6.9 mph - N/A   Mostly Cloudy
10:00 AM 53.6 °F - 35.6 °F 51% 30.06 in 6.2 mi North 8.1 mph - N/A   Mostly Cloudy
10:30 AM 57.2 °F - 37.4 °F 48% 30.06 in 6.2 mi North 8.1 mph - N/A   Mostly Cloudy
11:00 AM 58 °F - 40 °F 39% 30.07 in - NNE 9.2 mph - -  
11:00 AM 57.2 °F - 39.2 °F 51% 30.06 in 6.2 mi NNE 9.2 mph - N/A   Mostly Cloudy
11:30 AM 60.8 °F - 39.2 °F 45% 30.06 in 6.2 mi NNE 10.4 mph - N/A   Mostly Cloudy
12:00 PM 64 °F - 42 °F 33% 30.05 in 19 mi North 10.4 mph - -   Scattered Clouds
12:00 PM 64.4 °F - 42.8 °F 45% 30.04 in 6.2 mi North 10.4 mph - N/A   Mostly Cloudy
12:30 PM 66.2 °F - 44.6 °F 46% 30.01 in 6.2 mi North 9.2 mph - N/A   Mostly Cloudy
1:00 PM 66.2 °F - 46.4 °F 49% 30.01 in 6.2 mi NW 15.0 mph - N/A   Mostly Cloudy
1:30 PM 64.4 °F - 46.4 °F 52% 30.01 in 6.2 mi NW 17.3 mph - N/A   Mostly Cloudy
2:00 PM 64 °F - 46 °F 42% 30.00 in - NNW 12.7 mph - -  
2:00 PM 64.4 °F - 46.4 °F 52% 29.98 in 6.2 mi NNW 12.7 mph - N/A   Mostly Cloudy
2:30 PM 64.4 °F - 46.4 °F 52% 29.98 in 6.2 mi NNW 13.8 mph - N/A   Mostly Cloudy
3:00 PM 64 °F - 48 °F 46% 30.00 in 16 mi NNW 11.5 mph - -   Partly Cloudy
3:00 PM 64.4 °F - 48.2 °F 56% 29.98 in 6.2 mi NNW 11.5 mph - N/A   Mostly Cloudy
3:30 PM 64.4 °F - 50.0 °F 59% 29.98 in 6.2 mi NNW 8.1 mph - N/A Rain Light Rain Showers
3:52 PM 62.6 °F - 53.6 °F 72% 29.98 in 3.1 mi WSW 12.7 mph 24.2 mph N/A Rain Rain Showers
4:00 PM 60.8 °F - 55.4 °F 82% 29.98 in 3.7 mi West 13.8 mph - N/A Rain Light Rain Showers
4:19 PM 60.8 °F - 57.2 °F 88% 30.01 in 3.7 mi West 5.8 mph - N/A Rain Light Rain
4:30 PM 60.8 °F - 55.4 °F 82% 30.01 in 3.7 mi WSW 6.9 mph - N/A Rain Light Rain
4:41 PM 59.0 °F - 55.4 °F 88% 30.01 in 1.9 mi WNW 11.5 mph - N/A Rain Rain Showers
5:00 PM 57 °F - 55 °F 91% 30.02 in - WNW 11.5 mph - -  
5:00 PM 57.2 °F - 55.4 °F 94% 30.01 in 2.5 mi WNW 11.5 mph - N/A Rain Light Rain Showers
5:30 PM 57.2 °F - 55.4 °F 94% 30.01 in 6.2 mi North 6.9 mph - N/A Rain Light Rain
6:00 PM 57 °F - 55 °F 91% 30.02 in 5 mi North 5.8 mph - - Rain Heavy Rain Showers
6:00 PM 57.2 °F - 55.4 °F 94% 30.01 in 5.0 mi North 5.8 mph - N/A Rain Light Rain Showers
6:15 PM 57.2 °F - 55.4 °F 94% 30.04 in 3.1 mi South 12.7 mph - N/A Rain Light Rain Showers
6:30 PM 55.4 °F - 53.6 °F 94% 30.04 in 3.1 mi South 17.3 mph - N/A Rain Light Rain Showers
7:00 PM 55.4 °F - 53.6 °F 94% 30.04 in 6.2 mi NE 9.2 mph - N/A Rain Light Rain
7:19 PM 55.4 °F - 53.6 °F 94% 30.01 in 3.7 mi NE 13.8 mph - N/A Rain Rain Showers
7:30 PM 55.4 °F - 53.6 °F 94% 30.04 in 3.7 mi NE 11.5 mph - N/A Rain Light Rain Showers
7:38 PM 55.4 °F - 53.6 °F 94% 30.01 in - NE 11.5 mph - N/A   Unknown
7:50 PM 55.4 °F - 53.6 °F 94% 30.04 in 1.9 mi NE 8.1 mph - N/A Rain Heavy Rain Showers
7:59 PM 55.4 °F - 53.6 °F 94% 30.04 in 1.9 mi South 17.3 mph - N/A Rain Light Rain Showers
8:00 PM 55 °F - 54 °F 95% 30.05 in - South 16.1 mph - -  
8:00 PM 55.4 °F - 53.6 °F 94% 30.04 in 1.9 mi South 16.1 mph - N/A Rain Light Rain Showers
8:30 PM 55.4 °F - 53.6 °F 94% 30.04 in 3.1 mi East 6.9 mph - N/A Rain Rain Showers
9:00 PM 55 °F - 54 °F 96% 30.04 in 4 mi ENE 8.1 mph - - Rain Light Rain
9:00 PM 55.4 °F - 53.6 °F 94% 30.04 in 3.7 mi ENE 8.1 mph - N/A Rain Light Rain
9:11 PM 55.4 °F - 53.6 °F 94% 30.04 in 6.2 mi NE 8.1 mph - N/A   Mostly Cloudy
9:30 PM 55.4 °F - 53.6 °F 94% 30.04 in 6.2 mi ENE 6.9 mph - N/A   Mostly Cloudy
10:00 PM 55.4 °F - 53.6 °F 94% 30.04 in 6.2 mi ENE 8.1 mph - N/A   Mostly Cloudy
10:30 PM 55.4 °F - 53.6 °F 94% 30.04 in 6.2 mi NE 9.2 mph - N/A   Mostly Cloudy
10:38 PM 55.4 °F - 53.6 °F 94% 30.04 in 6.2 mi NE 6.9 mph - N/A   Mostly Cloudy
11:00 PM 56 °F - 55 °F 94% 30.04 in - NE 8.1 mph - -  
11:00 PM 55.4 °F - 55.4 °F 100% 30.04 in 6.2 mi NE 8.1 mph - N/A   Mostly Cloudy
11:30 PM 55.4 °F - 55.4 °F 100% 30.04 in 6.2 mi NE 6.9 mph - N/A   Mostly Cloudy